Location: Unspecified
(43.4354°N, 0.0000°E)
Time: 03:10:17
(UTC+00:00)

Tiros 1 despin weight - Pass Details

Date: 30 June 2019
Orbit: 594 x 643 km, 48.2° (Epoch: 22 July)

Event Time Altitude Azimuth Distance (km) Brightness Sun altitude
Rises 21:07:34 0° 257° (WSW) 2,879 ? -12.1°
Reaches altitude 10° 21:09:54 10° 261° (W) 1,967 ? -12.4°
Maximum altitude 21:14:23 63° 343° (NNW) 681 ? -12.9°
Drops below altitude 10° 21:18:48 10° 65° (ENE) 1,944 ? -13.4°
Sets 21:21:07 0° 68° (ENE) 2,842 ? -13.7°
